GW7345 Weather Reports


time (UTC)temp
C
wind
direction
speed
KPH
gust
KPH
rain 1hr
cm
rain 24hr
cm
rain mn
cm
humidity
%
barometer
mb
20260505223517 26 185 6.4 17.7 0.00 0.00 0.00 41 1013.6
20260505223017 27 190 6.4 19.3 0.00 0.00 0.00 41 1013.7
20260505222517 27 186 4.8 11.3 0.00 0.00 0.00 41 1013.7
20260505222017 26 192 3.2 12.9 0.00 0.00 0.00 41 1013.8
20260505221517 26 196 6.4 17.7 0.00 0.00 0.00 41 1013.8
20260505221017 26 204 3.2 11.3 0.00 0.00 0.00 42 1013.8
20260505220517 26 191 4.8 12.9 0.00 0.00 0.00 42 1013.8
20260505220038 26 188 8.0 20.9 0.00 0.00 0.00 42 1013.9
20260505215518 26 191 8.0 17.7 0.00 0.00 0.00 41 1013.8
20260505215018 26 188 6.4 16.1 0.00 0.00 0.00 42 1013.9
20260505214518 26 185 6.4 17.7 0.00 0.00 0.00 42 1013.9
20260505214017 27 193 6.4 14.5 0.00 0.00 0.00 41 1013.8
20260505213538 27 198 6.4 17.7 0.00 0.00 0.00 42 1013.9
20260505213018 26 204 6.4 14.5 0.00 0.00 0.00 42 1013.9
20260505212518 26 192 4.8 12.9 0.00 0.00 0.00 42 1014.0
20260505212038 27 209 4.8 12.9 0.00 0.00 0.00 42 1014.0
20260505211515 26 188 8.0 19.3 0.00 0.00 0.00 41 1014.0
20260505211015 26 190 8.0 14.5 0.00 0.00 0.00 42 1014.0
20260505210515 26 200 4.8 12.9 0.00 0.00 0.00 42 1014.1
20260505210015 26 211 3.2 9.7 0.00 0.00 0.00 43 1014.0
20260505205515 26 198 4.8 14.5 0.00 0.00 0.00 43 1014.1
20260505205035 26 183 8.0 14.5 0.00 0.00 0.00 42 1014.2
20260505204516 26 187 9.7 22.5 0.00 0.00 0.00 42 1014.2
20260505204016 26 190 6.4 14.5 0.00 0.00 0.00 41 1014.3
20260505203521 26 209 4.8 14.5 0.00 0.00 0.00 41 1014.3
20260505203015 27 193 8.0 20.9 0.00 0.00 0.00 40 1014.3
20260505202516 27 238 4.8 12.9 0.00 0.00 0.00 41 1014.3
20260505202016 27 185 8.0 19.3 0.00 0.00 0.00 40 1014.3
20260505201556 27 188 8.0 17.7 0.00 0.00 0.00 41 1014.3
20260505201016 27 195 6.4 17.7 0.00 0.00 0.00 40 1014.5
20260505200516 27 193 6.4 14.5 0.00 0.00 0.00 40 1014.5
20260505200016 27 184 9.7 20.9 0.00 0.00 0.00 40 1014.6
20260505195516 27 194 4.8 17.7 0.00 0.00 0.00 40 1014.6
20260505195016 27 194 4.8 12.9 0.00 0.00 0.00 39 1014.7
20260505194516 27 185 9.7 24.1 0.00 0.00 0.00 38 1014.7
20260505194017 27 186 8.0 17.7 0.00 0.00 0.00 38 1014.8
20260505193517 27 195 6.4 11.3 0.00 0.00 0.00 39 1015.0
20260505193037 27 194 9.7 20.9 0.00 0.00 0.00 39 1015.1
20260505192520 27 190 8.0 16.1 0.00 0.00 0.00 39 1015.1
20260505192020 27 187 6.4 16.1 0.00 0.00 0.00 40 1015.1
20260505191520 27 189 9.7 17.7 0.00 0.00 0.00 39 1015.1
20260505191020 27 191 8.0 19.3 0.00 0.00 0.00 39 1015.3
20260505190517 27 223 4.8 11.3 0.00 0.00 0.00 40 1015.3
20260505190017 26 187 6.4 14.5 0.00 0.00 0.00 40 1015.4
20260505185517 26 190 9.7 19.3 0.00 0.00 0.00 41 1015.4
20260505185037 27 191 9.7 22.5 0.00 0.00 0.00 40 1015.5
20260505184517 27 199 6.4 17.7 0.00 0.00 0.00 40 1015.5
20260505184057 26 198 4.8 17.7 0.00 0.00 0.00 41 1015.6
20260505183518 26 288 4.8 11.3 0.00 0.00 0.00 42 1015.8
20260505183018 27 190 6.4 16.1 0.00 0.00 0.00 41 1015.8
20260505182518 26 209 6.4 16.1 0.00 0.00 0.00 41 1016.0
20260505182018 26 195 6.4 12.9 0.00 0.00 0.00 41 1015.9
20260505181518 26 182 9.7 22.5 0.00 0.00 0.00 41 1016.0
20260505181018 26 204 6.4 19.3 0.00 0.00 0.00 41 1016.0
20260505180518 26 200 6.4 17.7 0.00 0.00 0.00 41 1016.0
20260505180018 26 189 6.4 14.5 0.00 0.00 0.00 42 1016.1
20260505175518 25 199 4.8 14.5 0.00 0.00 0.00 42 1016.1
20260505175015 26 192 8.0 14.5 0.00 0.00 0.00 42 1016.1
20260505174518 26 195 8.0 20.9 0.00 0.00 0.00 41 1016.1
20260505174015 25 186 9.7 16.1 0.00 0.00 0.00 40 1016.1
20260505173515 26 194 11.3 25.7 0.00 0.00 0.00 39 1016.1
20260505173016 26 192 8.0 20.9 0.00 0.00 0.00 39 1016.1
20260505172555 26 193 9.7 25.7 0.00 0.00 0.00 41 1016.1
20260505172015 26 183 6.4 17.7 0.00 0.00 0.00 44 1016.0
20260505171516 26 187 4.8 12.9 0.00 0.00 0.00 43 1016.2
20260505171016 25 197 6.4 19.3 0.00 0.00 0.00 43 1016.1
20260505170516 25 188 9.7 19.3 0.00 0.00 0.00 43 1016.2
20260505170016 25 215 6.4 16.1 0.00 0.00 0.00 42 1016.3
20260505165521 25 217 6.4 19.3 0.00 0.00 0.00 43 1016.4
20260505165016 25 210 4.8 16.1 0.00 0.00 0.00 43 1016.5
20260505164516 25 192 8.0 17.7 0.00 0.00 0.00 43 1016.6
20260505164016 25 199 8.0 16.1 0.00 0.00 0.00 42 1016.7
20260505163516 25 188 4.8 12.9 0.00 0.00 0.00 45 1016.7
20260505163016 25 193 4.8 12.9 0.00 0.00 0.00 47 1016.7
20260505162516 25 192 8.0 20.9 0.00 0.00 0.00 47 1016.8
20260505162016 25 191 8.0 14.5 0.00 0.00 0.00 48 1016.8
20260505161516 25 282 3.2 9.7 0.00 0.00 0.00 49 1016.9
20260505161037 24 203 3.2 9.7 0.00 0.00 0.00 50 1017.0
20260505160517 24 201 4.8 12.9 0.00 0.00 0.00 50 1017.0
20260505153037 22 188 6.4 14.5 0.00 0.00 0.00 56 1017.2
20260505152517 22 192 8.0 17.7 0.00 0.00 0.00 56 1017.3
20260505152017 22 181 9.7 16.1 0.00 0.00 0.00 58 1017.3
20260505151537 22 187 6.4 14.5 0.00 0.00 0.00 58 1017.3
20260505151017 22 188 6.4 17.7 0.00 0.00 0.00 59 1017.3
20260505150517 22 194 4.8 12.9 0.00 0.00 0.00 61 1017.3
20260505140556 20 222 4.8 12.9 0.00 0.00 0.00 68 1017.2
20260505125037 16 211 4.8 11.3 0.00 0.00 0.00 74 1017.2
20260505124516 16 290 4.8 11.3 0.00 0.00 0.00 74 1017.1
20260505124017 16 192 4.8 14.5 0.00 0.00 0.00 74 1017.1
20260505123517 16 214 3.2 8.0 0.00 0.00 0.00 75 1017.2
20260505123017 16 217 3.2 8.0 0.00 0.00 0.00 75 1017.3
20260505122516 16 258 3.2 8.0 0.00 0.00 0.00 75 1017.3
20260505122037 16 219 3.2 9.7 0.00 0.00 0.00 75 1017.1
20260505121517 16 198 1.6 11.3 0.00 0.00 0.00 76 1017.0
20260505121037 15 212 1.6 4.8 0.00 0.00 0.00 77 1017.0
20260505120517 15 219 1.6 4.8 0.00 0.00 0.00 77 1016.9
20260505120017 15 157 0.0 4.8 0.00 0.00 0.00 78 1016.8
20260505115517 14 189 1.6 6.4 0.00 0.00 0.00 78 1016.8
20260505115017 14 165 0.0 3.2 0.00 0.00 0.00 80 1016.7
20260505114517 13 0.0 0.0 0.00 0.00 0.00 81 1016.7
20260505114017 13 157 0.0 3.2 0.00 0.00 0.00 82 1016.8
20260505113517 12 90 0.0 0.0 0.00 0.00 0.00 83 1016.9
20260505113017 12 0.0 0.0 0.00 0.00 0.00 84 1016.9
20260505112528 12 0.0 0.0 0.00 0.00 0.00 85 1016.9
20260505112028 11 94 0.0 0.0 0.00 0.00 0.00 86 1016.8
20260505111548 11 0.0 0.0 0.00 0.00 0.00 87 1016.7
20260505111029 11 110 0.0 0.0 0.00 0.00 0.00 89 1016.6
20260505110610 11 0.0 0.0 0.00 0.00 0.00 90 1016.6
20260505102029 12 0.0 0.0 0.00 0.00 0.00 83 1016.3
20260505101529 12 177 0.0 3.2 0.00 0.00 0.00 82 1016.3
20260505101029 12 52 0.0 1.6 0.00 0.00 0.00 82 1016.2
20260505100529 12 192 0.0 3.2 0.00 0.00 0.00 82 1016.0
20260505100029 13 0.0 0.0 0.00 0.00 0.00 81 1015.9
20260505095530 13 0.0 0.0 0.00 0.00 0.00 80 1015.9
20260505095030 13 0.0 0.0 0.00 0.00 0.00 79 1015.8
20260505094530 13 179 1.6 6.4 0.00 0.00 0.00 79 1015.7
20260505094030 13 175 3.2 6.4 0.00 0.00 0.00 79 1015.7
20260505093530 13 188 1.6 4.8 0.00 0.00 0.00 78 1015.6
20260505093019 13 179 4.8 9.7 0.00 0.00 0.00 78 1015.6
20260505092519 13 170 3.2 9.7 0.00 0.00 0.00 78 1015.6
20260505092016 13 185 3.2 4.8 0.00 0.00 0.00 77 1015.5
20260505091516 14 180 3.2 6.4 0.00 0.00 0.00 77 1015.5
20260505091020 14 176 4.8 9.7 0.00 0.00 0.00 76 1015.5
20260505090520 14 176 4.8 9.7 0.00 0.00 0.00 76 1015.5
20260505090020 14 180 4.8 8.0 0.00 0.00 0.00 76 1015.5
20260505085526 14 172 3.2 9.7 0.00 0.00 0.00 75 1015.4
20260505085019 14 177 4.8 9.7 0.00 0.00 0.00 75 1015.4
20260505084520 14 175 4.8 11.3 0.00 0.00 0.00 75 1015.4
20260505084057 14 184 4.8 8.0 0.00 0.00 0.00 75 1015.4
20260505083540 14 183 4.8 8.0 0.00 0.00 0.00 74 1015.4
20260505083020 14 172 4.8 11.3 0.00 0.00 0.00 74 1015.4
20260505082520 14 177 4.8 9.7 0.00 0.00 0.00 74 1015.3
20260505082020 14 181 4.8 9.7 0.00 0.00 0.00 73 1015.3
20260505081520 14 172 4.8 11.3 0.00 0.00 0.00 73 1015.3
20260505081020 14 175 6.4 14.5 0.00 0.00 0.00 73 1015.3
20260505080520 15 180 4.8 9.7 0.00 0.00 0.00 73 1015.3
20260505080020 15 174 3.2 9.7 0.00 0.00 0.00 73 1015.3
20260505075520 15 173 4.8 11.3 0.00 0.00 0.00 72 1015.3
20260505075020 15 181 3.2 8.0 0.00 0.00 0.00 72 1015.2
20260505074521 15 175 3.2 9.7 0.00 0.00 0.00 71 1015.3
20260505074021 15 174 3.2 11.3 0.00 0.00 0.00 71 1015.3
20260505073518 15 174 4.8 16.1 0.00 0.00 0.00 70 1015.2
20260505073027 15 178 4.8 12.9 0.00 0.00 0.00 70 1015.2
20260505072527 15 172 4.8 14.5 0.00 0.00 0.00 70 1015.2
20260505072027 15 190 4.8 11.3 0.00 0.00 0.00 69 1015.2
20260505071532 15 197 3.2 11.3 0.00 0.00 0.00 69 1015.1
20260505071027 15 180 6.4 12.9 0.00 0.00 0.00 68 1015.1
20260505070528 15 179 4.8 12.9 0.00 0.00 0.00 68 1015.1
20260505070024 15 184 4.8 12.9 0.00 0.00 0.00 69 1015.1
20260505065524 15 182 4.8 12.9 0.00 0.00 0.00 68 1015.1
20260505065025 15 177 6.4 14.5 0.00 0.00 0.00 68 1015.1
20260505064525 15 179 6.4 11.3 0.00 0.00 0.00 68 1015.1
20260505064025 15 180 4.8 14.5 0.00 0.00 0.00 67 1015.2
20260505063525 15 181 4.8 11.3 0.00 0.00 0.00 67 1015.2
20260505063022 16 177 6.4 14.5 0.00 0.00 0.00 67 1015.3
20260505062516 16 186 4.8 11.3 0.00 0.00 0.00 66 1015.3
20260505062016 16 182 4.8 11.3 0.00 0.00 0.00 66 1015.3
20260505061516 16 181 4.8 11.3 0.00 0.00 0.00 66 1015.3
20260505061016 16 183 4.8 8.0 0.00 0.00 0.00 66 1015.3
20260505060517 16 183 4.8 11.3 0.00 0.00 0.00 66 1015.3
20260505060016 16 178 4.8 11.3 0.00 0.00 0.00 65 1015.3
20260505055537 16 180 4.8 11.3 0.00 0.00 0.00 65 1015.3
20260505055016 16 176 6.4 14.5 0.00 0.00 0.00 65 1015.3
20260505054516 16 183 3.2 14.5 0.00 0.00 0.00 65 1015.3
20260505054017 16 180 4.8 11.3 0.00 0.00 0.00 65 1015.3
20260505053537 16 179 4.8 11.3 0.00 0.00 0.00 65 1015.3
20260505053017 16 175 6.4 11.3 0.00 0.00 0.00 64 1015.4
20260505052517 16 182 6.4 11.3 0.00 0.00 0.00 64 1015.4
20260505052037 16 184 3.2 11.3 0.00 0.00 0.00 64 1015.4
20260505051517 16 190 4.8 9.7 0.00 0.00 0.00 63 1015.5
20260505051018 16 193 4.8 11.3 0.00 0.00 0.00 64 1015.5
20260505050517 17 179 4.8 11.3 0.00 0.00 0.00 63 1015.5
20260505041518 17 178 6.4 17.7 0.00 0.00 0.00 60 1015.6
20260505041018 17 188 6.4 12.9 0.00 0.00 0.00 59 1015.6
20260505040518 17 183 4.8 12.9 0.00 0.00 0.00 59 1015.6
20260505040015 17 191 6.4 16.1 0.00 0.00 0.00 58 1015.6
20260505035515 17 183 6.4 16.1 0.00 0.00 0.00 57 1015.6
20260505035015 17 181 8.0 14.5 0.00 0.00 0.00 56 1015.5
20260505034515 17 180 6.4 14.5 0.00 0.00 0.00 56 1015.5
20260505034015 17 183 4.8 9.7 0.00 0.00 0.00 56 1015.5
20260505033516 17 190 3.2 11.3 0.00 0.00 0.00 55 1015.6
20260505033016 17 188 4.8 11.3 0.00 0.00 0.00 55 1015.6
20260505032515 17 179 3.2 6.4 0.00 0.00 0.00 54 1015.5
20260505032016 17 179 3.2 9.7 0.00 0.00 0.00 54 1015.5
20260505031536 17 186 3.2 8.0 0.00 0.00 0.00 53 1015.5
20260505031018 18 183 3.2 8.0 0.00 0.00 0.00 53 1015.5
20260505030516 18 179 3.2 9.7 0.00 0.00 0.00 52 1015.5
20260505030016 18 182 4.8 9.7 0.00 0.00 0.00 52 1015.5
20260505025516 18 181 3.2 9.7 0.00 0.00 0.00 52 1015.5
20260505025016 18 180 3.2 8.0 0.00 0.00 0.00 52 1015.5
20260505024517 18 177 4.8 9.7 0.00 0.00 0.00 51 1015.5
20260505024016 18 180 3.2 9.7 0.00 0.00 0.00 51 1015.4
20260505023516 18 182 3.2 6.4 0.00 0.00 0.00 51 1015.4
20260505023017 18 185 3.2 6.4 0.00 0.00 0.00 50 1015.4
20260505022516 18 187 4.8 8.0 0.00 0.00 0.00 50 1015.3
20260505022017 18 188 4.8 8.0 0.00 0.00 0.00 49 1015.3
20260505021517 18 182 4.8 9.7 0.00 0.00 0.00 49 1015.2
20260505021017 18 181 3.2 8.0 0.00 0.00 0.00 48 1015.2
20260505020517 19 186 3.2 8.0 0.00 0.00 0.00 48 1015.2
20260505020017 19 182 4.8 8.0 0.00 0.00 0.00 47 1015.2
20260505015517 19 190 4.8 8.0 0.00 0.00 0.00 46 1015.1
20260505015017 18 185 4.8 9.7 0.00 0.00 0.00 46 1015.0
20260505014537 18 183 3.2 8.0 0.00 0.00 0.00 45 1015.0
20260505014017 18 184 4.8 9.7 0.00 0.00 0.00 44 1015.0
20260505013517 18 183 1.6 6.4 0.00 0.00 0.00 44 1014.9
20260505013017 18 199 0.0 4.8 0.00 0.00 0.00 43 1014.8
20260505012517 18 185 1.6 4.8 0.00 0.00 0.00 42 1014.7
20260505012018 18 188 1.6 4.8 0.00 0.00 0.00 43 1014.7
20260505011517 18 186 1.6 6.4 0.00 0.00 0.00 43 1014.6
20260505011017 18 176 0.0 6.4 0.00 0.00 0.00 45 1014.6
20260505010537 18 175 0.0 3.2 0.00 0.00 0.00 44 1014.5
20260505010017 18 188 0.0 3.2 0.00 0.00 0.00 44 1014.4
20260505005518 19 180 0.0 3.2 0.00 0.00 0.00 43 1014.4
20260505005018 20 189 1.6 4.8 0.00 0.00 0.00 42 1014.4
20260505004517 20 192 1.6 4.8 0.00 0.00 0.00 41 1014.3
20260505004018 20 195 1.6 4.8 0.00 0.00 0.00 40 1014.2
20260505003538 21 206 1.6 4.8 0.00 0.00 0.00 39 1014.2
20260505003015 21 199 1.6 4.8 0.00 0.00 0.00 38 1014.1
20260505002518 21 207 1.6 4.8 0.00 0.00 0.00 37 1014.1
20260505002015 22 185 3.2 11.3 0.00 0.00 0.00 37 1014.1
20260505001515 22 186 4.8 8.0 0.00 0.00 0.00 37 1014.1
20260505001016 22 186 3.2 8.0 0.00 0.00 0.00 36 1014.2
20260505000516 22 185 4.8 8.0 0.00 0.00 0.00 36 1014.1
20260505000016 22 189 3.2 11.3 0.00 0.00 0.00 36 1014.0
20260504235535 22 183 4.8 11.3 0.00 0.00 0.00 36 1014.0
20260504235016 23 186 4.8 11.3 0.00 0.00 0.00 36 1013.9
20260504234516 23 185 6.4 14.5 0.00 0.00 0.00 36 1013.9
20260504234036 23 186 4.8 9.7 0.00 0.00 0.00 36 1013.8
20260504233516 23 191 4.8 9.7 0.00 0.00 0.00 36 1013.7
20260504233016 23 178 8.0 17.7 0.00 0.00 0.00 35 1013.7
20260504232516 23 194 4.8 16.1 0.00 0.00 0.00 36 1013.6
20260504232017 24 186 6.4 16.1 0.00 0.00 0.00 37 1013.6
20260504231516 24 187 4.8 11.3 0.00 0.00 0.00 37 1013.6
20260504231016 25 196 6.4 12.9 0.00 0.00 0.00 36 1013.6
20260504230516 25 200 4.8 11.3 0.00 0.00 0.00 35 1013.6
20260504230017 25 194 8.0 17.7 0.00 0.00 0.00 34 1013.5
20260504225517 25 196 4.8 9.7 0.00 0.00 0.00 33 1013.5
20260504225017 25 195 6.4 12.9 0.00 0.00 0.00 32 1013.5
20260504224518 26 189 4.8 14.5 0.00 0.00 0.00 32 1013.5
20260504224016 26 191 6.4 16.1 0.00 0.00 0.00 31 1013.5